Current Weather Conditions: station ENDR

sailwx.info

See reports from other nearby stations

no recent reports received from weather station ID ENDR

Tides Pressure Air temp Water temp Dewpoint Dewpoint depression Visibility Wind speed Wind direction Waves Ship positions
date/time (UTC)wind fromknots sea level pressurealtimeterstation pressurevisibilityair tempwater tempwave heightnotes
2017-Apr-23 14:50 300 26 6.0
2017-Apr-23 14:20 300 26 6.0
2017-Apr-23 13:50 290 27 6.0
2017-Apr-23 13:20 300 27 6.0
2017-Apr-23 12:50 300 29 5.0
2017-Apr-23 12:10 300 29 5.4 5.0 Showers in the vicinity.
2017-Apr-23 11:50 300 28 5.0
2017-Apr-23 11:20 290 29 4.0
2017-Apr-23 10:50 290 27 5.0
2017-Apr-23 10:20 310 29 4.0
2017-Apr-23 09:50 300 28 5.0
2017-Apr-23 09:10 310 32 5.4 4.0
2017-Apr-23 08:50 310 29 3.0
2017-Apr-23 08:20 310 33 3.0
2017-Apr-23 07:50 290 33 4.0
2017-Apr-23 07:20 310 34 3.0
2017-Apr-23 06:50 320 33 2.0
2017-Apr-23 06:10 310 36 5.4 3.0 Showers in the vicinity.
2017-Apr-23 05:50 310 33 3.0
2017-Apr-23 05:20 300 36 3.0
2017-Apr-23 04:50 310 34 3.0
2017-Apr-23 04:20 280 27 2.0
2017-Apr-23 03:50 310 34 3.0
2017-Apr-23 00:50 310 27 3.0
2017-Apr-23 00:20 310 35 2.0
2017-Apr-22 23:50 320 19 1.0
2017-Apr-22 23:20 310 28 3.0
2017-Apr-22 22:50 320 26 2.0
2017-Apr-22 22:20 310 28 3.0
2017-Apr-22 21:50 320 27 4.0
2017-Apr-22 21:20 310 27 4.0
2017-Apr-22 20:50 330 19 gusting 31 4.0
2017-Apr-22 20:20 330 20 4.0
2017-Apr-22 19:50 330 24 3.0
2017-Apr-22 19:20 330 17 4.0
2017-Apr-22 18:50 320 17 4.0
2017-Apr-22 18:20 330 12 3.0
2017-Apr-22 17:50 320 22 2.0
2017-Apr-22 17:20 300 13 4.0
2017-Apr-22 16:50 310 18 3.0
2017-Apr-22 16:20 330 18 3.0
2017-Apr-22 15:50 300 22 6.0
2017-Apr-22 15:10 310 20 5.4 6.0 Showers in the vicinity.
2017-Apr-22 14:50 280 17 4.0
2017-Apr-22 14:20 310 25 4.0
2017-Apr-22 13:50 330 14 3.0
2017-Apr-22 13:20 280 14 5.0
2017-Apr-22 12:50 5.0
2017-Apr-22 12:10 310 22 5.4 5.0 Showers in the vicinity.
2017-Apr-22 11:50 310 20 5.0
2017-Apr-22 11:20 320 15 gusting 27 4.0
2017-Apr-22 10:50 330 20 4.0
2017-Apr-22 10:20 320 22 5.0
2017-Apr-22 09:50 330 14 4.0
2017-Apr-22 09:10 340 20 5.4 4.0 Showers in the vicinity.
2017-Apr-22 08:50 330 22 5.0
2017-Apr-22 08:20 310 24 5.0
2017-Apr-22 07:50 310 18 4.0
2017-Apr-22 07:20 330 9 4.0
2017-Apr-22 06:50 320 28 4.0
2017-Apr-22 06:10 340 19 5.4 5.0 Showers in the vicinity.
2017-Apr-22 05:50 340 15 gusting 32 4.0
2017-Apr-22 05:20 340 19 gusting 33 3.0
2017-Apr-22 04:50 350 22 4.0
2017-Apr-22 04:20 320 27 4.0
2017-Apr-22 03:50 350 27 4.0
2017-Apr-22 03:20 350 27 4.0
2017-Apr-22 02:50 340 24 gusting 36 4.0
2017-Apr-22 02:20 340 27 gusting 41 2.0
2017-Apr-22 01:50 340 22 gusting 34 4.0
2017-Apr-22 01:20 340 27 gusting 48 4.0
2017-Apr-22 00:50 340 33 gusting 45 4.0
2017-Apr-22 00:20 350 26 4.0
2017-Apr-21 23:50 350 26 4.0
2017-Apr-21 23:20 350 27 gusting 42 4.0
2017-Apr-21 22:50 340 25 gusting 45 4.0
2017-Apr-21 22:20 350 27 gusting 45 5.0
2017-Apr-21 21:50 340 20 5.0
2017-Apr-21 21:20 350 36 5.0
2017-Apr-21 20:50 340 28 gusting 41 4.0
2017-Apr-21 20:20 350 34 5.0
2017-Apr-21 19:50 350 35 4.0
2017-Apr-21 19:20 350 29 4.0
2017-Apr-21 18:50 350 29 5.0
2017-Apr-21 18:20 350 35 gusting 48 4.0
2017-Apr-21 17:50 340 22 gusting 36 6.0
2017-Apr-21 17:20 350 27 6.0
2017-Apr-21 16:50 350 21 5.0
2017-Apr-21 16:20 320 17 4.0
2017-Apr-21 15:50 330 26 4.0
2017-Apr-21 15:20 300 25 6.0